AFL1744 UUEE-UEEE

Flight info

Callsign AFL1744
Flight time 5h 47m
Altitude 37000
Route K0883F370 DCT RILPO T753 TUNOB T791 UHT T816 BASEB/K0878F390 T816 OSVOD M130 PLR W19 NIBES DCT
Aircraft A333/H-SDE3GHIJ2J3J5M1RVWXY/LB2D1

Departure

Time 2026-04-25 13:12
Airport Sheremetyevo International Airport (UUEE)

Arrival

Time 2026-04-25 18:59
Airport Platon Oyunsky Yakutsk International Airport (UEEE)
Time Latitude Longitude Altitude Speed Heading
2026-04-25 12:38 55.97940 37.41861 642 ft 0 kts 255°
2026-04-25 13:00 55.97941 37.41878 642 ft 2 kts 277°
2026-04-25 13:00 55.97940 37.41887 642 ft 2 kts 273°
2026-04-25 13:00 55.97945 37.41930 642 ft 2 kts 252°
2026-04-25 13:00 55.97948 37.41947 642 ft 2 kts 251°
2026-04-25 13:01 55.97955 37.41970 642 ft 2 kts 222°
2026-04-25 13:01 55.97967 37.41986 641 ft 2 kts 200°
2026-04-25 13:01 55.97981 37.41992 642 ft 2 kts 178°
2026-04-25 13:01 55.97990 37.41991 642 ft 0 kts 163°
2026-04-25 13:02 55.97994 37.41988 642 ft 0 kts 164°
2026-04-25 13:04 55.97979 37.41996 641 ft 9 kts 162°
2026-04-25 13:05 55.97869 37.42053 641 ft 20 kts 165°
2026-04-25 13:05 55.97740 37.42114 641 ft 5 kts 165°
2026-04-25 13:05 55.97704 37.42139 641 ft 7 kts 141°
2026-04-25 13:05 55.97696 37.42261 641 ft 16 kts 76°
2026-04-25 13:06 55.97735 37.42520 641 ft 25 kts 76°
2026-04-25 13:06 55.97778 37.42832 641 ft 26 kts 73°
2026-04-25 13:06 55.97827 37.43146 641 ft 26 kts 75°
2026-04-25 13:06 55.97872 37.43460 641 ft 26 kts 73°
2026-04-25 13:07 55.97914 37.43718 641 ft 5 kts 75°
2026-04-25 13:07 55.97923 37.43781 642 ft 5 kts 75°
2026-04-25 13:07 55.97924 37.43789 641 ft 5 kts 75°
2026-04-25 13:07 55.97928 37.43809 641 ft 4 kts 75°
2026-04-25 13:08 55.97936 37.43865 642 ft 4 kts 75°
2026-04-25 13:08 55.97943 37.43914 641 ft 3 kts 75°
2026-04-25 13:08 55.97938 37.44000 641 ft 6 kts 126°
2026-04-25 13:08 55.97913 37.44029 641 ft 0 kts 158°
2026-04-25 13:10 55.97906 37.44033 641 ft 6 kts 162°
2026-04-25 13:10 55.97839 37.44071 641 ft 11 kts 165°
2026-04-25 13:10 55.97785 37.44024 641 ft 5 kts 246°
2026-04-25 13:10 55.97777 37.43982 642 ft 0 kts 253°
2026-04-25 13:12 55.97743 37.43756 641 ft 52 kts 255°
2026-04-25 13:12 55.97582 37.42669 642 ft 126 kts 254°
2026-04-25 13:12 55.97297 37.40824 833 ft 168 kts 254°
2026-04-25 13:12 55.97071 37.39493 1269 ft 174 kts 256°
2026-04-25 13:13 55.96647 37.36739 2357 ft 186 kts 254°
2026-04-25 13:13 55.96276 37.34354 2791 ft 211 kts 255°
2026-04-25 13:13 55.95878 37.31810 3211 ft 218 kts 255°
2026-04-25 13:13 55.95462 37.29142 3513 ft 229 kts 255°
2026-04-25 13:14 55.95024 37.26333 3857 ft 241 kts 255°
2026-04-25 13:14 55.94559 37.23367 4259 ft 255 kts 255°
2026-04-25 13:14 55.94085 37.20345 4988 ft 257 kts 254°
2026-04-25 13:14 55.93605 37.17299 5739 ft 257 kts 254°
2026-04-25 13:15 55.93117 37.14194 6443 ft 260 kts 254°
2026-04-25 13:15 55.92630 37.11119 7120 ft 262 kts 255°
2026-04-25 13:15 55.92137 37.07997 7815 ft 263 kts 255°
2026-04-25 13:15 55.91650 37.04874 8511 ft 264 kts 258°
2026-04-25 13:16 55.91658 37.01644 9142 ft 265 kts 285°
2026-04-25 13:16 55.92529 36.98754 9810 ft 269 kts 310°
2026-04-25 13:16 55.94056 36.96692 10031 ft 286 kts 326°
2026-04-25 13:16 55.95701 36.94794 9950 ft 279 kts 323°
2026-04-25 13:17 55.97291 36.92865 9995 ft 276 kts 326°
2026-04-25 13:17 55.99090 36.91736 9967 ft 277 kts 352°
2026-04-25 13:17 56.01024 36.92194 10139 ft 295 kts 18°
2026-04-25 13:17 56.02762 36.94113 10939 ft 295 kts 31°
2026-04-25 13:18 56.04475 36.96159 11611 ft 296 kts 29°
2026-04-25 13:18 56.06182 36.98159 12231 ft 299 kts 29°
2026-04-25 13:18 56.07923 37.00194 12883 ft 300 kts 28°
2026-04-25 13:18 56.09679 37.02248 13484 ft 302 kts 28°
2026-04-25 13:19 56.11345 37.04544 13631 ft 310 kts 44°
2026-04-25 13:19 56.12448 37.07872 13677 ft 326 kts 69°
2026-04-25 13:19 56.12949 37.11961 13936 ft 342 kts 75°
2026-04-25 13:19 56.13129 37.13353 14060 ft 345 kts 73°
2026-04-25 13:20 56.14103 37.20340 14697 ft 351 kts 72°
2026-04-25 13:20 56.14695 37.24525 14599 ft 349 kts 72°
2026-04-25 13:20 56.15295 37.28775 14670 ft 349 kts 72°
2026-04-25 13:20 56.15920 37.32925 14641 ft 347 kts 66°
2026-04-25 13:21 56.17104 37.36682 14774 ft 349 kts 50°
2026-04-25 13:21 56.18467 37.40243 15534 ft 345 kts 51°
2026-04-25 13:21 56.19830 37.43817 15668 ft 354 kts 51°
2026-04-25 13:21 56.21223 37.47483 15597 ft 347 kts 51°
2026-04-25 13:22 56.22580 37.51056 15697 ft 348 kts 51°
2026-04-25 13:22 56.23946 37.54640 15815 ft 357 kts 51°
2026-04-25 13:22 56.25347 37.58321 16616 ft 351 kts 51°
2026-04-25 13:23 56.28140 37.65665 16607 ft 352 kts 52°
2026-04-25 13:23 56.29514 37.69284 16688 ft 356 kts 52°
2026-04-25 13:23 56.30996 37.72836 16674 ft 355 kts 45°
2026-04-25 13:23 56.32605 37.76257 17166 ft 360 kts 46°
2026-04-25 13:24 56.34195 37.79676 17719 ft 358 kts 45°
2026-04-25 13:24 56.35810 37.83150 17578 ft 361 kts 45°
2026-04-25 13:24 56.37410 37.86600 17653 ft 357 kts 45°
2026-04-25 13:24 56.39268 37.89465 17640 ft 348 kts 24°
2026-04-25 13:25 56.41508 37.90856 17745 ft 345 kts
2026-04-25 13:25 56.43922 37.91220 17939 ft 356 kts
2026-04-25 13:25 56.46448 37.91577 18098 ft 370 kts
2026-04-25 13:25 56.49057 37.91939 18256 ft 383 kts
2026-04-25 13:26 56.51709 37.92304 18560 ft 391 kts
2026-04-25 13:26 56.54448 37.92681 19124 ft 393 kts
2026-04-25 13:26 56.57166 37.93053 19631 ft 395 kts 360°
2026-04-25 13:26 56.59897 37.93427 20062 ft 399 kts 360°
2026-04-25 13:27 56.62690 37.93807 20519 ft 402 kts
2026-04-25 13:27 56.65465 37.94189 20990 ft 404 kts 360°
2026-04-25 13:27 56.68227 37.95049 21398 ft 414 kts 13°
2026-04-25 13:27 56.70844 37.97482 21787 ft 428 kts 31°
2026-04-25 13:28 56.73021 38.01223 22168 ft 437 kts 43°
2026-04-25 13:28 56.73717 38.02570 22302 ft 437 kts 41°
2026-04-25 13:28 56.77283 38.09123 22935 ft 442 kts 40°
2026-04-25 13:28 56.79468 38.13068 23306 ft 444 kts 40°
2026-04-25 13:29 56.81663 38.17022 23683 ft 447 kts 40°
2026-04-25 13:29 56.83884 38.21022 24052 ft 450 kts 40°
2026-04-25 13:29 56.86093 38.25008 24447 ft 452 kts 40°
2026-04-25 13:30 56.90783 38.32631 25168 ft 454 kts 36°
2026-04-25 13:30 56.93198 38.36392 25555 ft 456 kts 36°
2026-04-25 13:30 56.95592 38.40136 25891 ft 459 kts 36°
2026-04-25 13:31 57.00460 38.47780 26615 ft 464 kts 36°
2026-04-25 13:31 57.02898 38.51620 26912 ft 467 kts 36°
2026-04-25 13:31 57.05379 38.55535 27231 ft 470 kts 36°
2026-04-25 13:31 57.07840 38.59430 27565 ft 472 kts 36°
2026-04-25 13:32 57.10348 38.63400 27873 ft 475 kts 36°
2026-04-25 13:32 57.12838 38.67352 28182 ft 477 kts 37°
2026-04-25 13:32 57.15355 38.71353 28483 ft 479 kts 37°
2026-04-25 13:32 57.17900 38.75407 28742 ft 482 kts 37°
2026-04-25 13:33 57.20422 38.79430 28951 ft 486 kts 37°
2026-04-25 13:33 57.22982 38.83524 29321 ft 485 kts 36°
2026-04-25 13:33 57.25503 38.87563 29711 ft 484 kts 37°
2026-04-25 13:33 57.26355 38.88929 29832 ft 484 kts 37°
2026-04-25 13:34 57.30579 38.95719 30408 ft 484 kts 36°
2026-04-25 13:34 57.33096 38.99770 30735 ft 483 kts 37°
2026-04-25 13:34 57.35612 39.03833 31048 ft 483 kts 36°
2026-04-25 13:34 57.38148 39.07935 31360 ft 482 kts 37°
2026-04-25 13:35 57.40682 39.12039 31638 ft 482 kts 37°
2026-04-25 13:35 57.43213 39.16149 31892 ft 481 kts 37°
2026-04-25 13:35 57.45726 39.20235 32148 ft 480 kts 36°
2026-04-25 13:35 57.48230 39.24316 32364 ft 480 kts 36°
2026-04-25 13:36 57.50737 39.28393 32523 ft 482 kts 36°
2026-04-25 13:36 57.53274 39.32523 32732 ft 482 kts 36°
2026-04-25 13:36 57.55801 39.36644 32974 ft 481 kts 36°
2026-04-25 13:36 57.58349 39.40811 33194 ft 480 kts 36°
2026-04-25 13:37 57.60875 39.44944 33396 ft 480 kts 36°
2026-04-25 13:37 57.63374 39.49046 33576 ft 480 kts 37°
2026-04-25 13:37 57.65884 39.53172 33754 ft 480 kts 37°
2026-04-25 13:37 57.68380 39.57284 33929 ft 480 kts 37°
2026-04-25 13:38 57.70864 39.61384 34117 ft 480 kts 37°
2026-04-25 13:38 57.73370 39.65527 34303 ft 479 kts 38°
2026-04-25 13:38 57.75866 39.69662 34439 ft 479 kts 37°
2026-04-25 13:38 57.78365 39.73809 34605 ft 478 kts 37°
2026-04-25 13:39 57.80860 39.77959 34764 ft 478 kts 38°
2026-04-25 13:39 57.83369 39.82140 34927 ft 477 kts 38°
2026-04-25 13:39 57.85856 39.86289 35061 ft 477 kts 38°
2026-04-25 13:39 57.88319 39.90421 35212 ft 477 kts 38°
2026-04-25 13:40 57.90783 39.94587 35346 ft 477 kts 38°
2026-04-25 13:40 57.93263 39.98787 35479 ft 477 kts 38°
2026-04-25 13:40 57.95703 40.02925 35600 ft 477 kts 38°
2026-04-25 13:40 57.98155 40.07095 35726 ft 476 kts 38°
2026-04-25 13:41 58.00614 40.11279 35850 ft 476 kts 38°
2026-04-25 13:41 58.03039 40.15419 35971 ft 476 kts 38°
2026-04-25 13:41 58.05486 40.19599 36099 ft 475 kts 38°
2026-04-25 13:41 58.07937 40.23796 36211 ft 475 kts 38°
2026-04-25 13:42 58.10376 40.27983 36299 ft 475 kts 38°
2026-04-25 13:42 58.15248 40.36366 36487 ft 476 kts 38°
2026-04-25 13:43 58.20129 40.44725 36612 ft 475 kts 38°
2026-04-25 13:43 58.25035 40.53119 36623 ft 481 kts 38°
2026-04-25 13:44 58.30007 40.61663 36615 ft 485 kts 38°
2026-04-25 13:44 58.35023 40.70316 36609 ft 488 kts 39°
2026-04-25 13:45 58.40018 40.78966 36611 ft 490 kts 39°
2026-04-25 13:45 58.45020 40.87664 36611 ft 486 kts 39°
2026-04-25 13:46 58.50005 40.96367 36608 ft 486 kts 39°
2026-04-25 13:46 58.54943 41.05025 36607 ft 486 kts 39°
2026-04-25 13:47 58.59904 41.13754 36607 ft 486 kts 39°
2026-04-25 13:47 58.64869 41.22528 36608 ft 487 kts 39°
2026-04-25 13:48 58.69809 41.31292 36616 ft 487 kts 39°
2026-04-25 13:48 58.74772 41.40133 36608 ft 488 kts 39°
2026-04-25 13:49 58.79987 41.48398 36613 ft 485 kts 32°
2026-04-25 13:49 58.85435 41.56067 36597 ft 485 kts 32°
2026-04-25 13:50 58.90811 41.63731 36591 ft 485 kts 33°
2026-04-25 13:50 58.96223 41.71485 36576 ft 486 kts 33°
2026-04-25 13:51 59.01654 41.79296 36578 ft 486 kts 34°
2026-04-25 13:51 59.07040 41.87076 36577 ft 486 kts 34°
2026-04-25 13:52 59.12455 41.94928 36576 ft 486 kts 33°
2026-04-25 13:52 59.17876 42.02821 36577 ft 487 kts 33°
2026-04-25 13:53 59.23257 42.10687 36578 ft 486 kts 34°
2026-04-25 13:53 59.28659 42.18616 36584 ft 486 kts 34°
2026-04-25 13:54 59.34054 42.26564 36582 ft 486 kts 34°
2026-04-25 13:54 59.39285 42.34781 36571 ft 490 kts 43°
2026-04-25 13:55 59.43815 42.44766 36574 ft 492 kts 45°
2026-04-25 13:55 59.48374 42.54724 36583 ft 491 kts 45°
2026-04-25 13:56 59.52941 42.64719 36572 ft 491 kts 45°
2026-04-25 13:56 59.57490 42.74713 36563 ft 491 kts 45°
2026-04-25 13:57 59.62022 42.84713 36560 ft 492 kts 45°
2026-04-25 13:57 59.66539 42.94729 36548 ft 492 kts 45°
2026-04-25 13:58 59.71099 43.04880 36550 ft 493 kts 45°
2026-04-25 13:58 59.75614 43.14972 36554 ft 493 kts 45°
2026-04-25 13:59 59.80144 43.25103 36556 ft 493 kts 45°
2026-04-25 13:59 59.84668 43.35272 36553 ft 493 kts 45°
2026-04-25 14:00 59.88446 43.43796 36555 ft 493 kts 45°
2026-04-25 14:00 59.93704 43.55716 36552 ft 493 kts 45°
2026-04-25 14:01 59.98226 43.65994 36555 ft 494 kts 46°
2026-04-25 14:01 60.02730 43.76274 36548 ft 493 kts 46°
2026-04-25 14:02 60.07190 43.86497 36547 ft 492 kts 46°
2026-04-25 14:02 60.11697 43.96879 36555 ft 492 kts 46°
2026-04-25 14:03 60.16144 44.07166 36546 ft 492 kts 46°
2026-04-25 14:03 60.20610 44.17542 36537 ft 492 kts 46°
2026-04-25 14:04 60.25051 44.27909 36526 ft 492 kts 46°
2026-04-25 14:04 60.29481 44.38296 36532 ft 491 kts 46°
2026-04-25 14:05 60.33898 44.48702 36530 ft 491 kts 46°
2026-04-25 14:05 60.38331 44.59190 36526 ft 490 kts 46°
2026-04-25 14:06 60.42712 44.69604 36527 ft 490 kts 47°
2026-04-25 14:06 60.47108 44.80106 36523 ft 489 kts 47°
2026-04-25 14:07 60.51492 44.90620 36523 ft 489 kts 47°
2026-04-25 14:07 60.55849 45.01120 36520 ft 489 kts 47°
2026-04-25 14:08 60.60225 45.11717 36518 ft 490 kts 47°
2026-04-25 14:08 60.64564 45.22269 36519 ft 488 kts 47°
2026-04-25 14:09 60.68888 45.32835 36518 ft 488 kts 47°
2026-04-25 14:09 60.73222 45.43476 36515 ft 489 kts 47°
2026-04-25 14:10 60.77558 45.54085 36515 ft 488 kts 47°
2026-04-25 14:10 60.81873 45.64689 36515 ft 488 kts 47°
2026-04-25 14:11 60.86213 45.75407 36514 ft 489 kts 48°
2026-04-25 14:11 60.90521 45.86090 36509 ft 490 kts 48°
2026-04-25 14:12 60.94849 45.96879 36510 ft 490 kts 48°
2026-04-25 14:12 60.99165 46.07686 36509 ft 490 kts 49°
2026-04-25 14:13 61.03454 46.18476 36509 ft 489 kts 49°
2026-04-25 14:13 61.07679 46.29315 36509 ft 488 kts 49°
2026-04-25 14:14 61.11908 46.40237 36507 ft 489 kts 49°
2026-04-25 14:14 61.16143 46.51230 36503 ft 491 kts 49°
2026-04-25 14:15 61.20389 46.62300 36500 ft 491 kts 49°
2026-04-25 14:15 61.24609 46.73367 36497 ft 491 kts 50°
2026-04-25 14:16 61.28809 46.84461 36494 ft 491 kts 50°
2026-04-25 14:16 61.33004 46.95596 36497 ft 491 kts 50°
2026-04-25 14:17 61.37194 47.06771 36488 ft 492 kts 50°
2026-04-25 14:17 61.41368 47.17961 36490 ft 492 kts 50°
2026-04-25 14:18 61.45539 47.29203 36478 ft 492 kts 50°
2026-04-25 14:18 61.49717 47.40524 36479 ft 492 kts 50°
2026-04-25 14:19 61.53867 47.51827 36476 ft 492 kts 51°
2026-04-25 14:19 61.57988 47.63143 36476 ft 492 kts 51°
2026-04-25 14:20 61.62116 47.74531 36477 ft 492 kts 52°
2026-04-25 14:20 61.66234 47.85951 36477 ft 491 kts 52°
2026-04-25 14:21 61.70336 47.97384 36478 ft 491 kts 52°
2026-04-25 14:21 61.74425 48.08836 36478 ft 491 kts 52°
2026-04-25 14:22 61.78494 48.20288 36475 ft 492 kts 52°
2026-04-25 14:22 61.82598 48.31896 36475 ft 492 kts 52°
2026-04-25 14:23 61.86665 48.43460 36469 ft 492 kts 52°
2026-04-25 14:23 61.90719 48.55045 36463 ft 491 kts 52°
2026-04-25 14:24 61.94754 48.66634 36457 ft 490 kts 53°
2026-04-25 14:24 61.98763 48.78206 36454 ft 489 kts 53°
2026-04-25 14:25 62.02764 48.89815 36449 ft 489 kts 53°
2026-04-25 14:25 62.06773 49.01504 36442 ft 491 kts 53°
2026-04-25 14:26 62.10781 49.13250 36436 ft 491 kts 53°
2026-04-25 14:26 62.14787 49.24965 36426 ft 491 kts 53°
2026-04-25 14:27 62.18788 49.36726 36433 ft 490 kts 53°
2026-04-25 14:27 62.22769 49.48489 36429 ft 490 kts 53°
2026-04-25 14:28 62.26739 49.60280 36435 ft 489 kts 53°
2026-04-25 14:28 62.30701 49.72108 36442 ft 489 kts 54°
2026-04-25 14:29 62.34631 49.83901 36434 ft 489 kts 54°
2026-04-25 14:29 62.38579 49.95810 36428 ft 489 kts 54°
2026-04-25 14:30 62.42483 50.07650 36422 ft 489 kts 54°
2026-04-25 14:30 62.48371 50.25619 36423 ft 489 kts 54°
2026-04-25 14:31 62.52257 50.37554 36418 ft 490 kts 54°
2026-04-25 14:31 62.56175 50.49611 36414 ft 490 kts 54°
2026-04-25 14:32 62.60084 50.61563 36408 ft 489 kts 54°
2026-04-25 14:32 62.64003 50.73620 36398 ft 489 kts 55°
2026-04-25 14:33 62.67911 50.85704 36399 ft 489 kts 55°
2026-04-25 14:33 62.71780 50.97732 36400 ft 489 kts 55°
2026-04-25 14:34 62.75659 51.09881 36409 ft 489 kts 55°
2026-04-25 14:34 62.79496 51.22010 36416 ft 489 kts 55°
2026-04-25 14:35 62.83356 51.34277 36409 ft 489 kts 55°
2026-04-25 14:35 62.87192 51.46534 36407 ft 489 kts 55°
2026-04-25 14:36 62.90996 51.58753 36409 ft 489 kts 55°
2026-04-25 14:36 62.94805 51.71054 36410 ft 488 kts 56°
2026-04-25 14:37 62.98579 51.83309 36398 ft 487 kts 56°
2026-04-25 14:37 63.02375 51.95702 36393 ft 488 kts 56°
2026-04-25 14:38 63.06143 52.08073 36394 ft 488 kts 56°
2026-04-25 14:38 63.09884 52.20421 36387 ft 488 kts 56°
2026-04-25 14:39 63.13639 52.32882 36381 ft 489 kts 56°
2026-04-25 14:39 63.17391 52.45401 36384 ft 489 kts 56°
2026-04-25 14:40 63.21107 52.57935 36388 ft 489 kts 57°
2026-04-25 14:40 63.24801 52.70471 36390 ft 489 kts 57°
2026-04-25 14:41 63.28509 52.83122 36388 ft 489 kts 58°
2026-04-25 14:41 63.32185 52.95739 36390 ft 489 kts 58°
2026-04-25 14:42 63.34638 53.04195 36390 ft 489 kts 58°
2026-04-25 14:42 63.39503 53.21060 36391 ft 489 kts 58°
2026-04-25 14:43 63.43174 53.33871 36386 ft 490 kts 58°
2026-04-25 14:43 63.46808 53.46625 36376 ft 490 kts 58°
2026-04-25 14:44 63.50455 53.59497 36390 ft 489 kts 58°
2026-04-25 14:44 63.54053 53.72266 36403 ft 489 kts 59°
2026-04-25 14:45 63.57762 53.84992 36415 ft 489 kts 55°
2026-04-25 14:45 63.61666 53.97472 36408 ft 490 kts 56°
2026-04-25 14:46 63.65560 54.10086 36401 ft 491 kts 56°
2026-04-25 14:46 63.69415 54.22650 36408 ft 490 kts 56°
2026-04-25 14:47 63.71975 54.31033 36409 ft 489 kts 56°
2026-04-25 14:47 63.77105 54.47924 36406 ft 489 kts 56°
2026-04-25 14:48 63.80911 54.60539 36409 ft 488 kts 56°
2026-04-25 14:48 63.84704 54.73179 36411 ft 488 kts 57°
2026-04-25 14:49 63.88483 54.85847 36414 ft 488 kts 57°
2026-04-25 14:49 63.92266 54.98599 36422 ft 488 kts 57°
2026-04-25 14:50 63.96049 55.11423 36422 ft 489 kts 57°
2026-04-25 14:50 63.99795 55.24233 36427 ft 489 kts 57°
2026-04-25 14:51 64.03532 55.37095 36431 ft 489 kts 57°
2026-04-25 14:51 64.07272 55.50050 36434 ft 488 kts 57°
2026-04-25 14:52 64.10978 55.62956 36438 ft 489 kts 57°
2026-04-25 14:52 64.13446 55.71590 36441 ft 488 kts 58°
2026-04-25 14:53 64.18390 55.88992 36440 ft 489 kts 58°
2026-04-25 14:53 64.22063 56.02011 36443 ft 490 kts 58°
2026-04-25 14:54 64.25738 56.15111 36454 ft 490 kts 58°
2026-04-25 14:54 64.29411 56.28278 36463 ft 490 kts 58°
2026-04-25 14:55 64.33069 56.41469 36468 ft 490 kts 58°
2026-04-25 14:55 64.36711 56.54677 36476 ft 489 kts 58°
2026-04-25 14:56 64.40359 56.67865 36473 ft 488 kts 59°
2026-04-25 14:56 64.43986 56.81060 36473 ft 488 kts 59°
2026-04-25 14:57 64.47602 56.94294 36474 ft 489 kts 59°
2026-04-25 14:57 64.51228 57.07647 36470 ft 490 kts 59°
2026-04-25 14:58 64.54823 57.20965 36474 ft 490 kts 59°
2026-04-25 14:58 64.58421 57.34367 36480 ft 490 kts 59°
2026-04-25 14:59 64.61989 57.47743 36484 ft 489 kts 59°
2026-04-25 14:59 64.65560 57.61212 36492 ft 488 kts 59°
2026-04-25 15:00 64.69115 57.74700 36509 ft 488 kts 60°
2026-04-25 15:00 64.72596 57.88154 36514 ft 489 kts 60°
2026-04-25 15:01 64.76097 58.01796 36511 ft 490 kts 60°
2026-04-25 15:01 64.79583 58.15457 36502 ft 490 kts 60°
2026-04-25 15:02 64.83040 58.29087 36505 ft 489 kts 60°
2026-04-25 15:02 64.86491 58.42787 36506 ft 489 kts 60°
2026-04-25 15:03 64.89930 58.56535 36517 ft 490 kts 60°
2026-04-25 15:03 64.93366 58.70353 36522 ft 490 kts 62°
2026-04-25 15:04 64.96771 58.84137 36519 ft 489 kts 62°
2026-04-25 15:04 65.00181 58.98022 36510 ft 489 kts 62°
2026-04-25 15:05 65.03544 59.11809 36503 ft 489 kts 62°
2026-04-25 15:06 65.08599 59.32694 36500 ft 489 kts 62°
2026-04-25 15:06 65.11948 59.46642 36503 ft 489 kts 62°
2026-04-25 15:07 65.15298 59.60679 36512 ft 489 kts 62°
2026-04-25 15:07 65.18619 59.74688 36499 ft 488 kts 62°
2026-04-25 15:08 65.21938 59.88782 36496 ft 488 kts 63°
2026-04-25 15:08 65.25228 60.02840 36502 ft 488 kts 63°
2026-04-25 15:09 65.28519 60.16998 36495 ft 488 kts 63°
2026-04-25 15:09 65.33408 60.38194 36509 ft 487 kts 63°
2026-04-25 15:10 65.36671 60.52460 36520 ft 488 kts 63°
2026-04-25 15:11 65.41513 60.73809 36528 ft 488 kts 63°
2026-04-25 15:11 65.44747 60.88183 36540 ft 488 kts 63°
2026-04-25 15:12 65.49556 61.09735 36541 ft 487 kts 64°
2026-04-25 15:12 65.51670 61.19282 36536 ft 487 kts 64°
2026-04-25 15:13 65.57471 61.45696 36528 ft 489 kts 63°
2026-04-25 15:14 65.60636 61.60249 36517 ft 489 kts 63°
2026-04-25 15:14 65.63775 61.74777 36520 ft 489 kts 64°
2026-04-25 15:15 65.66886 61.89276 36527 ft 489 kts 64°
2026-04-25 15:15 65.69992 62.03848 36527 ft 490 kts 64°
2026-04-25 15:16 65.73138 62.18550 36527 ft 489 kts 64°
2026-04-25 15:16 65.77807 62.40413 36540 ft 489 kts 64°
2026-04-25 15:17 65.82455 62.62406 36551 ft 490 kts 64°
2026-04-25 15:18 65.85539 62.77131 36559 ft 489 kts 65°
2026-04-25 15:18 65.90144 62.99305 36616 ft 488 kts 65°
2026-04-25 15:19 65.92183 63.09200 36615 ft 489 kts 65°
2026-04-25 15:19 65.96242 63.29033 36608 ft 489 kts 65°
2026-04-25 15:20 65.99261 63.43910 36632 ft 489 kts 65°
2026-04-25 15:20 66.02277 63.58880 36648 ft 489 kts 65°
2026-04-25 15:21 66.05280 63.73892 36655 ft 490 kts 66°
2026-04-25 15:21 66.08266 63.88927 36664 ft 490 kts 66°
2026-04-25 15:22 66.11267 64.04147 36661 ft 490 kts 66°
2026-04-25 15:22 66.14208 64.19180 36662 ft 489 kts 66°
2026-04-25 15:23 66.17140 64.34269 36665 ft 489 kts 66°
2026-04-25 15:23 66.20053 64.49375 36654 ft 489 kts 66°
2026-04-25 15:24 66.22953 64.64523 36664 ft 489 kts 66°
2026-04-25 15:24 66.24887 64.74689 36664 ft 490 kts 66°
2026-04-25 15:25 66.28754 64.95166 36660 ft 490 kts 66°
2026-04-25 15:25 66.31613 65.10442 36666 ft 490 kts 66°
2026-04-25 15:26 66.34462 65.25778 36671 ft 489 kts 66°
2026-04-25 15:26 66.37292 65.41134 36677 ft 489 kts 66°
2026-04-25 15:27 66.40112 65.56544 36680 ft 490 kts 66°
2026-04-25 15:28 66.44348 65.79710 36678 ft 490 kts 67°
2026-04-25 15:28 66.47168 65.95263 36684 ft 490 kts 67°
2026-04-25 15:29 66.49947 66.10716 36687 ft 490 kts 67°
2026-04-25 15:29 66.52721 66.26252 36692 ft 491 kts 67°
2026-04-25 15:30 66.55492 66.41900 36688 ft 490 kts 67°
2026-04-25 15:30 66.58231 66.57489 36696 ft 490 kts 67°
2026-04-25 15:31 66.61234 66.72787 36703 ft 490 kts 64°
2026-04-25 15:31 66.64346 66.88110 36698 ft 491 kts 64°
2026-04-25 15:32 66.67409 67.03359 36707 ft 491 kts 64°
2026-04-25 15:32 66.70472 67.18734 36718 ft 491 kts 64°
2026-04-25 15:33 66.75036 67.41857 36721 ft 491 kts 64°
2026-04-25 15:33 66.78063 67.57336 36731 ft 491 kts 64°
2026-04-25 15:34 66.81084 67.72799 36728 ft 491 kts 65°
2026-04-25 15:34 66.83097 67.83134 36735 ft 490 kts 65°
2026-04-25 15:35 66.88596 68.11639 36739 ft 491 kts 65°
2026-04-25 15:36 66.93053 68.35030 36738 ft 491 kts 65°
2026-04-25 15:36 66.96021 68.50761 36737 ft 492 kts 65°
2026-04-25 15:37 66.98955 68.66422 36740 ft 492 kts 66°
2026-04-25 15:37 67.01881 68.82170 36737 ft 492 kts 66°
2026-04-25 15:38 67.04807 68.98038 36740 ft 492 kts 66°
2026-04-25 15:38 67.07697 69.13834 36738 ft 492 kts 66°
2026-04-25 15:39 67.10583 69.29730 36740 ft 492 kts 66°
2026-04-25 15:39 67.13459 69.45696 36741 ft 491 kts 66°
2026-04-25 15:40 67.15353 69.56284 36734 ft 492 kts 66°
2026-04-25 15:40 67.19136 69.77593 36736 ft 492 kts 67°
2026-04-25 15:41 67.21953 69.93610 36743 ft 493 kts 67°
2026-04-25 15:41 67.24771 70.09763 36751 ft 493 kts 67°
2026-04-25 15:42 67.27553 70.25841 36752 ft 493 kts 67°
2026-04-25 15:42 67.30344 70.42105 36753 ft 492 kts 67°
2026-04-25 15:43 67.33101 70.58295 36760 ft 491 kts 67°
2026-04-25 15:43 67.35847 70.74558 36763 ft 492 kts 68°
2026-04-25 15:44 67.38571 70.90825 36773 ft 492 kts 68°
2026-04-25 15:44 67.41288 71.07192 36776 ft 492 kts 68°
2026-04-25 15:45 67.43981 71.23545 36780 ft 492 kts 68°
2026-04-25 15:45 67.45753 71.34380 36782 ft 492 kts 68°
2026-04-25 15:46 67.49304 71.56303 36787 ft 492 kts 68°
2026-04-25 15:46 67.51949 71.72804 36790 ft 492 kts 69°
2026-04-25 15:47 67.54558 71.89230 36795 ft 492 kts 69°
2026-04-25 15:47 67.57175 72.05844 36800 ft 492 kts 69°
2026-04-25 15:48 67.59763 72.22422 36802 ft 492 kts 69°
2026-04-25 15:48 67.62327 72.38987 36802 ft 491 kts 69°
2026-04-25 15:49 67.64883 72.55651 36807 ft 491 kts 69°
2026-04-25 15:49 67.67409 72.72258 36811 ft 492 kts 69°
2026-04-25 15:50 67.69929 72.88983 36816 ft 492 kts 69°
2026-04-25 15:50 67.72266 73.05876 36819 ft 492 kts 71°
2026-04-25 15:51 67.73804 73.17161 36819 ft 492 kts 71°
2026-04-25 15:51 67.76869 73.39831 36824 ft 492 kts 71°
2026-04-25 15:52 67.79147 73.56870 36824 ft 491 kts 71°
2026-04-25 15:52 67.81395 73.73845 36822 ft 491 kts 72°
2026-04-25 15:53 67.83632 73.90912 36824 ft 491 kts 72°
2026-04-25 15:53 67.85860 74.08078 36837 ft 492 kts 72°
2026-04-25 15:54 67.88067 74.25201 36846 ft 492 kts 71°
2026-04-25 15:54 67.90266 74.42318 36852 ft 492 kts 71°
2026-04-25 15:55 67.92445 74.59458 36854 ft 491 kts 71°
2026-04-25 15:55 67.94634 74.76852 36854 ft 491 kts 72°
2026-04-25 15:56 67.96779 74.94072 36846 ft 492 kts 72°
2026-04-25 15:56 67.98923 75.11404 36849 ft 492 kts 71°
2026-04-25 15:57 68.01418 75.28404 36851 ft 492 kts 69°
2026-04-25 15:57 68.03868 75.45361 36860 ft 492 kts 69°
2026-04-25 15:58 68.06303 75.62409 36865 ft 492 kts 69°
2026-04-25 15:58 68.08736 75.79614 36875 ft 492 kts 70°
2026-04-25 15:59 68.11144 75.96805 36877 ft 492 kts 70°
2026-04-25 15:59 68.13540 76.14056 36878 ft 493 kts 70°
2026-04-25 16:00 68.15135 76.25635 36884 ft 493 kts 70°
2026-04-25 16:00 68.18267 76.48586 36881 ft 493 kts 70°
2026-04-25 16:01 68.20589 76.65797 36885 ft 493 kts 71°
2026-04-25 16:01 68.22914 76.83200 36889 ft 492 kts 71°
2026-04-25 16:02 68.25195 77.00448 36898 ft 491 kts 71°
2026-04-25 16:02 68.27477 77.17867 36902 ft 492 kts 71°
2026-04-25 16:03 68.29726 77.35203 36905 ft 493 kts 71°
2026-04-25 16:03 68.31967 77.52664 36906 ft 493 kts 71°
2026-04-25 16:04 68.34189 77.70142 36910 ft 493 kts 72°
2026-04-25 16:04 68.36393 77.87670 36912 ft 493 kts 71°
2026-04-25 16:05 68.38588 78.05296 36917 ft 493 kts 71°
2026-04-25 16:06 68.41842 78.31774 36917 ft 493 kts 71°
2026-04-25 16:06 68.43979 78.49393 36917 ft 494 kts 71°
2026-04-25 16:07 68.46107 78.67130 36916 ft 493 kts 72°
2026-04-25 16:07 68.48204 78.84792 36917 ft 493 kts 72°
2026-04-25 16:08 68.50391 79.02560 36922 ft 492 kts 71°
2026-04-25 16:08 68.52582 79.20145 36923 ft 493 kts 71°
2026-04-25 16:09 68.54763 79.37858 36924 ft 493 kts 71°
2026-04-25 16:09 68.56916 79.55521 36924 ft 493 kts 71°
2026-04-25 16:10 68.59064 79.73338 36923 ft 493 kts 72°
2026-04-25 16:10 68.61194 79.91192 36925 ft 494 kts 72°
2026-04-25 16:11 68.63304 80.09075 36928 ft 494 kts 72°
2026-04-25 16:11 68.65379 80.26850 36931 ft 493 kts 72°
2026-04-25 16:12 68.67450 80.44785 36935 ft 493 kts 72°
2026-04-25 16:12 68.69506 80.62791 36938 ft 493 kts 72°
2026-04-25 16:13 68.71525 80.80669 36937 ft 493 kts 73°
2026-04-25 16:13 68.73544 80.98762 36941 ft 494 kts 73°
2026-04-25 16:14 68.75539 81.16830 36943 ft 493 kts 72°
2026-04-25 16:14 68.77514 81.34930 36945 ft 493 kts 72°
2026-04-25 16:15 68.79455 81.52927 36944 ft 493 kts 72°
2026-04-25 16:15 68.81397 81.71140 36947 ft 493 kts 73°
2026-04-25 16:16 68.83307 81.89270 36950 ft 494 kts 73°
2026-04-25 16:16 68.85211 82.07560 37185 ft 489 kts 73°
2026-04-25 16:16 68.86131 82.16485 37413 ft 486 kts 73°
2026-04-25 16:17 68.87064 82.25578 37523 ft 487 kts 73°
2026-04-25 16:17 68.88896 82.43598 37717 ft 487 kts 73°
2026-04-25 16:18 68.90723 82.61787 37916 ft 487 kts 73°
2026-04-25 16:18 68.92520 82.79913 38114 ft 487 kts 74°
2026-04-25 16:18 68.93404 82.88904 38231 ft 487 kts 74°
2026-04-25 16:19 68.94300 82.98086 38352 ft 487 kts 74°
2026-04-25 16:19 68.95180 83.07153 38466 ft 486 kts 74°
2026-04-25 16:19 68.96049 83.16166 38579 ft 486 kts 74°
2026-04-25 16:20 68.97784 83.34317 38813 ft 485 kts 74°
2026-04-25 16:20 68.98640 83.43361 38926 ft 484 kts 74°
2026-04-25 16:21 69.01190 83.70667 38981 ft 489 kts 75°
2026-04-25 16:21 69.02886 83.89122 38978 ft 493 kts 75°
2026-04-25 16:22 69.04569 84.07669 38961 ft 495 kts 75°
2026-04-25 16:22 69.06248 84.26448 38960 ft 497 kts 75°
2026-04-25 16:23 69.07900 84.45157 38966 ft 499 kts 75°
2026-04-25 16:23 69.09545 84.64081 38973 ft 500 kts 75°
2026-04-25 16:24 69.11165 84.82962 38977 ft 501 kts 76°
2026-04-25 16:24 69.12761 85.01839 38993 ft 501 kts 76°
2026-04-25 16:25 69.14350 85.20905 38998 ft 502 kts 76°
2026-04-25 16:25 69.15913 85.39956 39000 ft 499 kts 76°
2026-04-25 16:26 69.17443 85.58872 38997 ft 496 kts 76°
2026-04-25 16:26 69.18949 85.77769 38998 ft 496 kts 77°
2026-04-25 16:27 69.20437 85.96722 38999 ft 498 kts 77°
2026-04-25 16:27 69.21905 86.15720 39000 ft 499 kts 77°
2026-04-25 16:28 69.23360 86.34873 39003 ft 498 kts 77°
2026-04-25 16:28 69.24784 86.53885 38990 ft 496 kts 77°
2026-04-25 16:29 69.26187 86.72935 38985 ft 496 kts 78°
2026-04-25 16:29 69.27563 86.91916 38984 ft 496 kts 78°
2026-04-25 16:30 69.28922 87.10989 38990 ft 497 kts 78°
2026-04-25 16:30 69.30042 87.30237 38982 ft 497 kts 88°
2026-04-25 16:31 69.29722 87.49606 38983 ft 497 kts 93°
2026-04-25 16:31 69.29185 87.69056 38991 ft 497 kts 95°
2026-04-25 16:32 69.28606 87.88561 38982 ft 497 kts 95°
2026-04-25 16:32 69.28003 88.08013 38971 ft 496 kts 95°
2026-04-25 16:33 69.27386 88.27268 38977 ft 497 kts 95°
2026-04-25 16:33 69.26537 88.46592 39014 ft 497 kts 97°
2026-04-25 16:34 69.25596 88.65993 39026 ft 497 kts 98°
2026-04-25 16:34 69.24648 88.85153 39027 ft 497 kts 98°
2026-04-25 16:35 69.23675 89.04388 39028 ft 497 kts 98°
2026-04-25 16:35 69.22675 89.23709 39038 ft 497 kts 98°
2026-04-25 16:36 69.21664 89.42807 39045 ft 497 kts 98°
2026-04-25 16:36 69.20621 89.62103 39046 ft 497 kts 98°
2026-04-25 16:37 69.19563 89.81252 39032 ft 497 kts 98°
2026-04-25 16:37 69.18487 90.00324 39036 ft 495 kts 98°
2026-04-25 16:38 69.17422 90.19430 39034 ft 495 kts 97°
2026-04-25 16:38 69.16460 90.38622 39035 ft 496 kts 97°
2026-04-25 16:39 69.15468 90.57771 39059 ft 497 kts 97°
2026-04-25 16:39 69.14452 90.76926 38991 ft 498 kts 98°
2026-04-25 16:40 69.13416 90.96042 38999 ft 496 kts 98°
2026-04-25 16:40 69.12353 91.15259 39007 ft 497 kts 98°
2026-04-25 16:41 69.11278 91.34280 39017 ft 498 kts 98°
2026-04-25 16:41 69.09611 91.63028 38965 ft 497 kts 98°
2026-04-25 16:42 69.08478 91.82091 38954 ft 497 kts 99°
2026-04-25 16:42 69.07327 92.01092 38920 ft 497 kts 99°
2026-04-25 16:43 69.06156 92.20052 38920 ft 497 kts 99°
2026-04-25 16:43 69.04958 92.39087 38916 ft 497 kts 99°
2026-04-25 16:44 69.03741 92.58064 38899 ft 498 kts 99°
2026-04-25 16:44 69.02502 92.77042 38896 ft 497 kts 100°
2026-04-25 16:45 69.01247 92.95927 38920 ft 496 kts 100°
2026-04-25 16:45 68.99966 93.14852 38919 ft 498 kts 100°
2026-04-25 16:46 68.98664 93.33756 38887 ft 497 kts 100°
2026-04-25 16:46 68.97783 93.46369 38911 ft 497 kts 100°
2026-04-25 16:47 68.96002 93.71447 38930 ft 497 kts 101°
2026-04-25 16:47 68.94631 93.90376 38940 ft 497 kts 101°
2026-04-25 16:48 68.93251 94.09125 38942 ft 498 kts 101°
2026-04-25 16:48 68.91838 94.28020 39028 ft 497 kts 101°
2026-04-25 16:49 68.90417 94.46725 39013 ft 499 kts 101°
2026-04-25 16:49 68.88963 94.65560 38984 ft 498 kts 102°
2026-04-25 16:50 68.87496 94.84259 38980 ft 497 kts 102°
2026-04-25 16:50 68.86002 95.03007 38955 ft 498 kts 102°
2026-04-25 16:51 68.84480 95.21670 38939 ft 497 kts 102°
2026-04-25 16:51 68.83461 95.34010 38932 ft 497 kts 102°
2026-04-25 16:52 68.81374 95.58930 38921 ft 497 kts 102°
2026-04-25 16:52 68.79791 95.77518 38907 ft 497 kts 103°
2026-04-25 16:53 68.77387 96.05246 38914 ft 496 kts 103°
2026-04-25 16:54 68.75759 96.23714 39008 ft 495 kts 103°
2026-04-25 16:54 68.74110 96.42154 39005 ft 498 kts 103°
2026-04-25 16:55 68.72433 96.60651 38949 ft 498 kts 103°
2026-04-25 16:55 68.70750 96.78967 38940 ft 496 kts 104°
2026-04-25 16:56 68.69042 96.97321 38934 ft 496 kts 104°
2026-04-25 16:56 68.67316 97.15617 38956 ft 495 kts 104°
2026-04-25 16:57 68.65565 97.33935 38987 ft 496 kts 104°
2026-04-25 16:57 68.63792 97.52269 38987 ft 498 kts 104°
2026-04-25 16:58 68.61993 97.70613 39002 ft 497 kts 105°
2026-04-25 16:58 68.60184 97.88836 39003 ft 496 kts 105°
2026-04-25 16:59 68.58366 98.06935 38975 ft 496 kts 105°
2026-04-25 16:59 68.56520 98.25074 38959 ft 495 kts 105°
2026-04-25 17:00 68.54645 98.43271 38953 ft 495 kts 105°
2026-04-25 17:00 68.52773 98.61241 38963 ft 495 kts 105°
2026-04-25 17:01 68.50916 98.79306 38987 ft 496 kts 105°
2026-04-25 17:01 68.49036 98.97385 38993 ft 497 kts 105°
2026-04-25 17:02 68.47124 99.15545 38992 ft 497 kts 105°
2026-04-25 17:02 68.45203 99.33577 38992 ft 495 kts 105°
2026-04-25 17:03 68.43278 99.51443 38985 ft 496 kts 105°
2026-04-25 17:03 68.41322 99.69393 38992 ft 495 kts 107°
2026-04-25 17:04 68.39349 99.87277 38989 ft 495 kts 106°
2026-04-25 17:04 68.37355 100.05163 38999 ft 495 kts 107°
2026-04-25 17:05 68.35345 100.22981 39012 ft 495 kts 107°
2026-04-25 17:05 68.32297 100.49628 39009 ft 495 kts 107°
2026-04-25 17:06 68.30235 100.67405 39027 ft 495 kts 107°
2026-04-25 17:06 68.28159 100.85116 39062 ft 494 kts 107°
2026-04-25 17:07 68.26065 101.02781 39066 ft 494 kts 107°
2026-04-25 17:07 68.23955 101.20370 39055 ft 494 kts 108°
2026-04-25 17:08 68.21733 101.37920 39045 ft 494 kts 108°
2026-04-25 17:08 68.19501 101.55393 39035 ft 495 kts 108°
2026-04-25 17:09 68.17261 101.72759 39024 ft 494 kts 109°
2026-04-25 17:09 68.14994 101.90153 39019 ft 494 kts 109°
2026-04-25 17:10 68.12697 102.07610 39018 ft 494 kts 109°
2026-04-25 17:10 68.10400 102.24878 39024 ft 494 kts 109°
2026-04-25 17:11 68.08076 102.42187 39023 ft 494 kts 109°
2026-04-25 17:11 68.05725 102.59532 39029 ft 494 kts 109°
2026-04-25 17:12 68.03371 102.76730 39026 ft 493 kts 110°
2026-04-25 17:12 68.01012 102.93798 39021 ft 493 kts 110°
2026-04-25 17:13 67.99416 103.05257 39020 ft 493 kts 110°
2026-04-25 17:13 67.96210 103.28046 39031 ft 494 kts 110°
2026-04-25 17:14 67.93801 103.45207 39016 ft 494 kts 109°
2026-04-25 17:14 67.91411 103.62286 39020 ft 493 kts 110°
2026-04-25 17:15 67.89007 103.79295 39017 ft 493 kts 110°
2026-04-25 17:15 67.86584 103.96278 39033 ft 492 kts 110°
2026-04-25 17:16 67.84137 104.13268 39046 ft 493 kts 110°
2026-04-25 17:16 67.81684 104.30143 39049 ft 493 kts 110°
2026-04-25 17:17 67.79210 104.47010 39032 ft 492 kts 110°
2026-04-25 17:17 67.76718 104.63846 39016 ft 492 kts 110°
2026-04-25 17:18 67.74220 104.80568 39004 ft 492 kts 111°
2026-04-25 17:18 67.71687 104.97380 39006 ft 492 kts 111°
2026-04-25 17:19 67.69149 105.14065 39020 ft 492 kts 111°
2026-04-25 17:19 67.66587 105.30765 39026 ft 492 kts 111°
2026-04-25 17:20 67.64011 105.47411 39025 ft 492 kts 111°
2026-04-25 17:20 67.61418 105.64017 39029 ft 492 kts 111°
2026-04-25 17:21 67.58803 105.80622 39031 ft 492 kts 112°
2026-04-25 17:21 67.56167 105.97213 39028 ft 493 kts 112°
2026-04-25 17:22 67.54412 106.08179 39037 ft 492 kts 112°
2026-04-25 17:22 67.50871 106.30119 39055 ft 492 kts 112°
2026-04-25 17:23 67.48182 106.46614 39051 ft 492 kts 112°
2026-04-25 17:23 67.45505 106.62900 39045 ft 492 kts 112°
2026-04-25 17:24 67.42799 106.79226 39045 ft 492 kts 113°
2026-04-25 17:24 67.40020 106.95558 39050 ft 492 kts 114°
2026-04-25 17:25 67.37213 107.11777 39053 ft 492 kts 114°
2026-04-25 17:25 67.34407 107.27861 39062 ft 492 kts 114°
2026-04-25 17:26 67.31557 107.44065 39076 ft 491 kts 114°
2026-04-25 17:26 67.28714 107.60102 39089 ft 491 kts 114°
2026-04-25 17:27 67.25857 107.76097 39087 ft 490 kts 115°
2026-04-25 17:27 67.23937 107.86775 39094 ft 490 kts 115°
2026-04-25 17:28 67.20100 108.07931 39091 ft 490 kts 115°
2026-04-25 17:28 67.17191 108.23832 39092 ft 490 kts 115°
2026-04-25 17:29 67.14270 108.39670 39078 ft 490 kts 115°
2026-04-25 17:29 67.11334 108.55469 39079 ft 489 kts 115°
2026-04-25 17:30 67.08385 108.71214 39085 ft 487 kts 116°
2026-04-25 17:30 67.05438 108.86830 39088 ft 487 kts 116°
2026-04-25 17:31 67.02470 109.02436 39088 ft 487 kts 116°
2026-04-25 17:31 66.99482 109.18032 39100 ft 488 kts 116°
2026-04-25 17:32 66.96499 109.33484 39108 ft 488 kts 116°
2026-04-25 17:32 66.93475 109.49032 39096 ft 487 kts 116°
2026-04-25 17:33 66.90445 109.64496 39105 ft 488 kts 116°
2026-04-25 17:33 66.87403 109.79903 39102 ft 487 kts 117°
2026-04-25 17:34 66.84336 109.95320 39108 ft 488 kts 117°
2026-04-25 17:34 66.81264 110.10654 39112 ft 488 kts 117°
2026-04-25 17:35 66.78170 110.25983 39124 ft 489 kts 117°
2026-04-25 17:35 66.75050 110.41332 39111 ft 490 kts 117°
2026-04-25 17:36 66.71935 110.56543 39106 ft 489 kts 117°
2026-04-25 17:36 66.68784 110.71817 39117 ft 488 kts 118°
2026-04-25 17:37 66.65641 110.86939 39122 ft 488 kts 118°
2026-04-25 17:37 66.62475 111.02070 39139 ft 489 kts 117°
2026-04-25 17:38 66.60360 111.12116 39153 ft 489 kts 117°
2026-04-25 17:38 66.56081 111.32297 39146 ft 488 kts 117°
2026-04-25 17:39 66.52889 111.47227 39153 ft 488 kts 118°
2026-04-25 17:39 66.49661 111.62221 39163 ft 488 kts 118°
2026-04-25 17:40 66.46411 111.77209 39162 ft 488 kts 118°
2026-04-25 17:40 66.43161 111.92096 39161 ft 488 kts 118°
2026-04-25 17:41 66.39970 112.07053 39160 ft 488 kts 112°
2026-04-25 17:41 66.37638 112.22858 39160 ft 488 kts 110°
2026-04-25 17:42 66.35159 112.38607 39167 ft 487 kts 111°
2026-04-25 17:42 66.32658 112.54243 39162 ft 487 kts 111°
2026-04-25 17:43 66.30122 112.69957 39163 ft 487 kts 112°
2026-04-25 17:43 66.27580 112.85562 39164 ft 488 kts 112°
2026-04-25 17:44 66.25024 113.01131 39151 ft 488 kts 112°
2026-04-25 17:44 66.22457 113.16647 39159 ft 486 kts 112°
2026-04-25 17:45 66.20740 113.26955 39160 ft 486 kts 112°
2026-04-25 17:45 66.17276 113.47581 39160 ft 486 kts 112°
2026-04-25 17:46 66.14677 113.62916 39174 ft 486 kts 112°
2026-04-25 17:46 66.12048 113.78302 39197 ft 486 kts 113°
2026-04-25 17:47 66.09404 113.93655 39197 ft 486 kts 113°
2026-04-25 17:47 66.06731 114.09058 39199 ft 486 kts 113°
2026-04-25 17:48 66.02732 114.31878 39225 ft 485 kts 113°
2026-04-25 17:49 66.00040 114.47086 39211 ft 485 kts 113°
2026-04-25 17:49 65.97327 114.62302 39218 ft 484 kts 113°
2026-04-25 17:50 65.94603 114.77467 39228 ft 485 kts 114°
2026-04-25 17:50 65.91876 114.92535 39218 ft 484 kts 114°
2026-04-25 17:51 65.89143 115.07515 39221 ft 483 kts 114°
2026-04-25 17:51 65.86386 115.22520 39232 ft 484 kts 114°
2026-04-25 17:52 65.83603 115.37550 39235 ft 485 kts 114°
2026-04-25 17:52 65.80820 115.52466 39231 ft 484 kts 114°
2026-04-25 17:53 65.78008 115.67412 39227 ft 484 kts 115°
2026-04-25 17:53 65.75179 115.82333 39221 ft 484 kts 115°
2026-04-25 17:54 65.72366 115.97070 39217 ft 483 kts 115°
2026-04-25 17:54 65.69502 116.11961 39218 ft 484 kts 115°
2026-04-25 17:55 65.66645 116.26728 39221 ft 484 kts 115°
2026-04-25 17:55 65.63775 116.41467 39223 ft 484 kts 115°
2026-04-25 17:56 65.60901 116.56122 39222 ft 483 kts 115°
2026-04-25 17:56 65.57987 116.70871 39229 ft 484 kts 116°
2026-04-25 17:57 65.55079 116.85490 39233 ft 484 kts 116°
2026-04-25 17:57 65.52155 117.00087 39227 ft 483 kts 116°
2026-04-25 17:58 65.49213 117.14671 39225 ft 483 kts 116°
2026-04-25 17:58 65.46265 117.29168 39231 ft 483 kts 116°
2026-04-25 17:59 65.43293 117.43681 39231 ft 483 kts 116°
2026-04-25 17:59 65.40318 117.58107 39230 ft 483 kts 116°
2026-04-25 18:00 65.37812 117.70184 39234 ft 482 kts 117°
2026-04-25 18:00 65.34306 117.86961 39237 ft 482 kts 117°
2026-04-25 18:01 65.31289 118.01299 39235 ft 482 kts 117°
2026-04-25 18:01 65.28261 118.15588 39239 ft 482 kts 117°
2026-04-25 18:02 65.25214 118.29870 39245 ft 482 kts 117°
2026-04-25 18:02 65.22149 118.44136 39240 ft 482 kts 117°
2026-04-25 18:03 65.19073 118.58366 39242 ft 482 kts 117°
2026-04-25 18:03 65.15994 118.72513 39240 ft 482 kts 118°
2026-04-25 18:04 65.12910 118.86583 39241 ft 481 kts 118°
2026-04-25 18:04 65.09817 119.00609 39239 ft 481 kts 118°
2026-04-25 18:05 65.06702 119.14640 39239 ft 481 kts 118°
2026-04-25 18:05 65.03577 119.28628 39239 ft 481 kts 118°
2026-04-25 18:06 65.00426 119.42638 39235 ft 481 kts 118°
2026-04-25 18:06 64.97275 119.56560 39232 ft 480 kts 118°
2026-04-25 18:07 64.94102 119.70487 39231 ft 480 kts 119°
2026-04-25 18:07 64.90921 119.84356 39227 ft 481 kts 119°
2026-04-25 18:08 64.87740 119.98135 39227 ft 481 kts 119°
2026-04-25 18:08 64.84524 120.11968 39225 ft 481 kts 119°
2026-04-25 18:09 64.81309 120.25710 39231 ft 481 kts 119°
2026-04-25 18:09 64.78058 120.39516 39238 ft 480 kts 119°
2026-04-25 18:10 64.74831 120.53137 39241 ft 480 kts 119°
2026-04-25 18:10 64.71570 120.66814 39246 ft 479 kts 120°
2026-04-25 18:11 64.68325 120.80341 39245 ft 479 kts 120°
2026-04-25 18:11 64.65045 120.93926 39243 ft 479 kts 120°
2026-04-25 18:12 64.61749 121.07493 39239 ft 479 kts 120°
2026-04-25 18:12 64.58450 121.20988 39245 ft 479 kts 120°
2026-04-25 18:13 64.55142 121.34448 39237 ft 480 kts 120°
2026-04-25 18:13 64.51815 121.47898 39237 ft 479 kts 120°
2026-04-25 18:14 64.46827 121.67913 39238 ft 478 kts 121°
2026-04-25 18:14 64.43471 121.81273 39227 ft 478 kts 121°
2026-04-25 18:15 64.40105 121.94600 39215 ft 480 kts 121°
2026-04-25 18:15 64.36707 122.07967 39228 ft 480 kts 121°
2026-04-25 18:16 64.33316 122.21257 39225 ft 479 kts 121°
2026-04-25 18:17 64.28273 122.41020 39214 ft 478 kts 120°
2026-04-25 18:17 64.24939 122.54288 39224 ft 478 kts 120°
2026-04-25 18:18 64.21595 122.67511 39218 ft 478 kts 121°
2026-04-25 18:18 64.18240 122.80698 39213 ft 477 kts 121°
2026-04-25 18:19 64.14884 122.93797 39209 ft 478 kts 121°
2026-04-25 18:19 64.11504 123.06911 39201 ft 478 kts 121°
2026-04-25 18:20 64.08110 123.20005 39198 ft 477 kts 121°
2026-04-25 18:20 64.04707 123.33057 39199 ft 477 kts 121°
2026-04-25 18:21 64.01315 123.45987 39209 ft 476 kts 121°
2026-04-25 18:21 63.97898 123.58940 39220 ft 477 kts 121°
2026-04-25 18:22 63.94474 123.71841 39219 ft 477 kts 122°
2026-04-25 18:22 63.91018 123.84792 39217 ft 477 kts 122°
2026-04-25 18:23 63.87575 123.97616 39203 ft 477 kts 122°
2026-04-25 18:23 63.84100 124.10489 39186 ft 477 kts 122°
2026-04-25 18:24 63.80600 124.23374 39178 ft 477 kts 122°
2026-04-25 18:24 63.77102 124.36181 39183 ft 478 kts 122°
2026-04-25 18:25 63.73593 124.48955 39174 ft 478 kts 122°
2026-04-25 18:25 63.70051 124.61777 39176 ft 479 kts 122°
2026-04-25 18:26 63.66511 124.74517 39175 ft 478 kts 122°
2026-04-25 18:26 63.62973 124.87180 39177 ft 477 kts 122°
2026-04-25 18:27 63.59428 124.99797 39167 ft 478 kts 122°
2026-04-25 18:27 63.55873 125.12378 39165 ft 479 kts 122°
2026-04-25 18:28 63.52296 125.24966 39163 ft 479 kts 122°
2026-04-25 18:28 63.48707 125.37528 39164 ft 478 kts 122°
2026-04-25 18:29 63.43302 125.56312 39162 ft 478 kts 122°
2026-04-25 18:30 63.36068 125.81215 39150 ft 478 kts 123°
2026-04-25 18:30 63.32440 125.93599 39158 ft 477 kts 123°
2026-04-25 18:31 63.30610 125.99818 38885 ft 480 kts 123°
2026-04-25 18:31 63.28800 126.05958 38500 ft 472 kts 123°
2026-04-25 18:31 63.27007 126.12026 38007 ft 470 kts 123°
2026-04-25 18:31 63.25217 126.18063 37537 ft 466 kts 124°
2026-04-25 18:32 63.23418 126.24113 36992 ft 466 kts 124°
2026-04-25 18:32 63.21646 126.30061 36454 ft 465 kts 124°
2026-04-25 18:32 63.19873 126.35991 35885 ft 465 kts 124°
2026-04-25 18:32 63.18073 126.41996 35281 ft 464 kts 125°
2026-04-25 18:33 63.16298 126.47902 34584 ft 463 kts 124°
2026-04-25 18:33 63.14522 126.53790 33948 ft 461 kts 124°
2026-04-25 18:33 63.12698 126.59826 33105 ft 462 kts 124°
2026-04-25 18:33 63.10890 126.65794 32242 ft 461 kts 125°
2026-04-25 18:34 63.09084 126.71744 31452 ft 457 kts 124°
2026-04-25 18:34 63.07291 126.77631 30799 ft 451 kts 124°
2026-04-25 18:34 63.05529 126.83404 30186 ft 444 kts 124°
2026-04-25 18:34 63.03817 126.88999 29642 ft 437 kts 124°
2026-04-25 18:35 63.02100 126.94598 29095 ft 430 kts 124°
2026-04-25 18:35 63.00435 127.00011 28530 ft 425 kts 123°
2026-04-25 18:35 62.98786 127.05363 27918 ft 421 kts 123°
2026-04-25 18:35 62.97161 127.10618 27398 ft 415 kts 123°
2026-04-25 18:36 62.95529 127.15891 26869 ft 410 kts 123°
2026-04-25 18:36 62.93939 127.21016 26438 ft 403 kts 123°
2026-04-25 18:36 62.92374 127.26045 26004 ft 396 kts 122°
2026-04-25 18:36 62.90835 127.30983 25592 ft 390 kts 122°
2026-04-25 18:37 62.89311 127.35861 25154 ft 385 kts 122°
2026-04-25 18:37 62.87799 127.40690 24732 ft 380 kts 122°
2026-04-25 18:37 62.86326 127.45388 24250 ft 376 kts 122°
2026-04-25 18:37 62.84846 127.50095 23782 ft 373 kts 122°
2026-04-25 18:38 62.83391 127.54714 23310 ft 369 kts 122°
2026-04-25 18:38 62.81953 127.59268 22901 ft 365 kts 122°
2026-04-25 18:38 62.80505 127.63849 22358 ft 364 kts 122°
2026-04-25 18:38 62.79079 127.68349 21882 ft 362 kts 122°
2026-04-25 18:39 62.77662 127.72812 21422 ft 358 kts 122°
2026-04-25 18:39 62.76250 127.77250 21003 ft 355 kts 122°
2026-04-25 18:39 62.74858 127.81614 20516 ft 353 kts 122°
2026-04-25 18:39 62.73455 127.86011 20090 ft 349 kts 122°
2026-04-25 18:40 62.72081 127.90304 19644 ft 347 kts 122°
2026-04-25 18:40 62.70708 127.94585 19207 ft 344 kts 122°
2026-04-25 18:40 62.69350 127.98813 18763 ft 341 kts 122°
2026-04-25 18:40 62.67999 128.03015 18352 ft 338 kts 122°
2026-04-25 18:41 62.66656 128.07179 17934 ft 336 kts 121°
2026-04-25 18:41 62.65330 128.11285 17528 ft 333 kts 121°
2026-04-25 18:41 62.64003 128.15387 17090 ft 331 kts 121°
2026-04-25 18:41 62.62690 128.19437 16679 ft 329 kts 121°
2026-04-25 18:42 62.61383 128.23462 16283 ft 326 kts 121°
2026-04-25 18:42 62.60955 128.24777 16145 ft 325 kts 121°
2026-04-25 18:42 62.58779 128.31461 15413 ft 323 kts 121°
2026-04-25 18:42 62.57509 128.35353 15062 ft 320 kts 121°
2026-04-25 18:43 62.56223 128.39290 14592 ft 320 kts 121°
2026-04-25 18:43 62.54946 128.43193 14150 ft 319 kts 121°
2026-04-25 18:43 62.53663 128.47099 13707 ft 319 kts 121°
2026-04-25 18:43 62.52378 128.51010 13252 ft 318 kts 121°
2026-04-25 18:44 62.51096 128.54904 12808 ft 318 kts 121°
2026-04-25 18:44 62.49822 128.58769 12374 ft 316 kts 121°
2026-04-25 18:44 62.48564 128.62576 11954 ft 315 kts 121°
2026-04-25 18:44 62.47284 128.66446 11543 ft 313 kts 122°
2026-04-25 18:45 62.46033 128.70219 11131 ft 309 kts 122°
2026-04-25 18:45 62.44789 128.73965 10750 ft 302 kts 122°
2026-04-25 18:45 62.43597 128.77547 10408 ft 292 kts 122°
2026-04-25 18:45 62.42445 128.81007 10357 ft 278 kts 123°
2026-04-25 18:46 62.41336 128.84326 10262 ft 269 kts 122°
2026-04-25 18:46 62.40256 128.87563 10176 ft 260 kts 122°
2026-04-25 18:46 62.39180 128.90787 10130 ft 280 kts 122°
2026-04-25 18:46 62.37996 128.94334 9974 ft 301 kts 123°
2026-04-25 18:47 62.36766 128.97996 9563 ft 298 kts 122°
2026-04-25 18:47 62.35920 129.01862 9246 ft 280 kts 99°
2026-04-25 18:47 62.35619 129.05885 9021 ft 270 kts 96°
2026-04-25 18:47 62.35320 129.09808 8752 ft 267 kts 96°
2026-04-25 18:48 62.35022 129.13721 8492 ft 265 kts 96°
2026-04-25 18:48 62.34724 129.17619 8235 ft 262 kts 96°
2026-04-25 18:48 62.34432 129.21408 7974 ft 257 kts 96°
2026-04-25 18:48 62.34142 129.25165 7750 ft 253 kts 96°
2026-04-25 18:49 62.33855 129.28876 7513 ft 251 kts 96°
2026-04-25 18:49 62.33571 129.32530 7277 ft 249 kts 96°
2026-04-25 18:49 62.33284 129.36221 7039 ft 247 kts 96°
2026-04-25 18:49 62.33002 129.39819 6808 ft 241 kts 96°
2026-04-25 18:50 62.32729 129.43283 6571 ft 237 kts 96°
2026-04-25 18:50 62.32455 129.46770 6350 ft 236 kts 96°
2026-04-25 18:50 62.32185 129.50203 6127 ft 235 kts 96°
2026-04-25 18:50 62.31910 129.53656 5891 ft 229 kts 96°
2026-04-25 18:51 62.31646 129.56967 5653 ft 222 kts 96°
2026-04-25 18:51 62.31560 129.58050 5579 ft 222 kts 96°
2026-04-25 18:51 62.31130 129.63443 5207 ft 221 kts 96°
2026-04-25 18:51 62.30867 129.66721 4966 ft 222 kts 97°
2026-04-25 18:52 62.30605 129.69969 4733 ft 221 kts 97°
2026-04-25 18:52 62.30344 129.73204 4480 ft 220 kts 98°
2026-04-25 18:52 62.30082 129.76424 4218 ft 220 kts 98°
2026-04-25 18:52 62.29820 129.79649 3953 ft 219 kts 98°
2026-04-25 18:53 62.29559 129.82852 3669 ft 215 kts 98°
2026-04-25 18:53 62.29302 129.85985 3383 ft 211 kts 98°
2026-04-25 18:53 62.29053 129.89020 3112 ft 207 kts 97°
2026-04-25 18:53 62.28804 129.92056 2831 ft 204 kts 97°
2026-04-25 18:54 62.28102 129.97775 2638 ft 194 kts 111°
2026-04-25 18:54 62.27214 129.99890 2635 ft 194 kts 149°
2026-04-25 18:54 62.25909 130.00444 2488 ft 195 kts 188°
2026-04-25 18:55 62.24568 130.00043 2368 ft 197 kts 182°
2026-04-25 18:55 62.23219 129.99754 2244 ft 193 kts 199°
2026-04-25 18:55 62.22105 129.98171 2172 ft 192 kts 221°
2026-04-25 18:55 62.21069 129.96423 2131 ft 191 kts 219°
2026-04-25 18:56 62.20019 129.94699 2060 ft 187 kts 218°
2026-04-25 18:56 62.19087 129.93190 1975 ft 151 kts 220°
2026-04-25 18:56 62.18295 129.91893 1990 ft 140 kts 220°
2026-04-25 18:56 62.17532 129.90663 1993 ft 138 kts 220°
2026-04-25 18:57 62.16737 129.89401 2230 ft 147 kts 219°
2026-04-25 18:57 62.15846 129.88019 2172 ft 171 kts 220°
2026-04-25 18:57 62.14864 129.86438 2015 ft 178 kts 219°
2026-04-25 18:57 62.14532 129.85916 1828 ft 178 kts 219°
2026-04-25 18:58 62.13091 129.83618 713 ft 138 kts 220°
2026-04-25 18:58 62.11499 129.80974 560 ft 165 kts 218°
2026-04-25 18:58 62.10610 129.79556 362 ft 141 kts 218°
2026-04-25 18:59 62.09623 129.77951 342 ft 70 kts 217°
2026-04-25 18:59 62.09052 129.77046 342 ft 44 kts 218°
2026-04-25 19:00 62.08559 129.76266 342 ft 17 kts 217°
2026-04-25 19:00 62.08518 129.76117 342 ft 12 kts 286°
2026-04-25 19:01 62.08582 129.75906 342 ft 7 kts 304°
2026-04-25 19:01 62.08612 129.75812 342 ft 7 kts 305°
2026-04-25 19:01 62.08642 129.75717 342 ft 7 kts 302°
2026-04-25 19:01 62.08669 129.75623 342 ft 7 kts 301°
2026-04-25 19:02 62.08695 129.75417 342 ft 7 kts 268°
2026-04-25 19:02 62.08694 129.75310 342 ft 7 kts 270°
2026-04-25 19:02 62.08693 129.75217 342 ft 3 kts 269°
2026-04-25 19:03 62.08693 129.75200 342 ft 0 kts 269°